Location: Mountain View
(37.3861°N, 122.0839°W)
Time: 03:42:44
(UTC-07:00)

Envisat - Visible Passes

Search period start: 30 March 2017 00:00
Search period end: 09 April 2017 00:00
Orbit: 764 x 766 km, 98.2° (Epoch: 28 March)

Date Brightness Start Highest point End Pass type
(mag) Time Alt. Az. Time Alt. Az. Time Alt. Az.
30 Mar 2.9 21:14:39 35° SSE 21:16:51 79° ENE 21:21:57 10° N visible
31 Mar 3.7 20:37:25 19° ESE 20:40:19 34° ENE 20:44:53 10° N visible
31 Mar 4.9 22:17:37 20° SW 22:19:20 25° W 22:23:28 10° NW visible
01 Apr 4.6 20:00:59 10° E 20:03:58 16° ENE 20:06:59 10° NNE visible
01 Apr 3.5 21:40:23 33° SSW 21:42:29 57° W 21:47:29 10° NNW visible
02 Apr 3.0 21:03:09 27° SE 21:05:49 62° ENE 21:10:50 10° N visible
02 Apr 5.6 22:43:21 11° WSW 22:45:12 13° W 22:47:38 10° WNW visible
03 Apr 4.0 20:25:56 14° ESE 20:29:20 27° ENE 20:33:35 10° NNE visible
03 Apr 4.5 22:06:08 23° SW 22:08:13 31° W 22:12:43 10° NW visible
04 Apr 3.1 21:28:54 30° S 21:31:24 74° WSW 21:36:30 10° NNW visible
05 Apr 3.2 20:51:41 21° SE 20:54:48 48° ENE 20:59:40 10° N visible
05 Apr 5.3 22:31:53 14° WSW 22:34:02 17° W 22:37:22 10° NW visible
06 Apr 4.3 20:14:33 10° ESE 20:18:22 22° ENE 20:22:12 10° NNE visible
06 Apr 4.1 21:54:40 25° SSW 21:57:06 40° W 22:01:52 10° NNW visible
07 Apr 2.9 21:17:26 26° SSE 21:20:21 87° ENE 21:25:27 10° NNW visible
08 Apr 3.6 20:40:13 16° SE 20:43:47 38° ENE 20:48:27 10° N visible
08 Apr 5.1 22:20:25 16° SW 22:22:52 22° W 22:26:48 10° NW visible
